Accueil
METAR-TAF:

METAR-TAF

Aéroports :

De Queen, Arkansas, États-Unis

latitude: 34-02-49N, longitude: 094-23-58W, altitude: 108 m

Observation

Le bulletin a été fait il y a 1 heure et 2 minutes, à 14:53 UTC
Vent calme
Température 1°C
Humidité 80%
Pression 1034 hPa
Visibilité: 16.1 km
Ciel clair

METAR: KDEQ 191453Z AUTO 00000KT 10SM CLR 01/M02 A3054 RMK AO1 SLP342 I3001 T00061022 52017

Heure: 09:55 (15:55 UTC)


TAF: absent

Observations et prévisions météorologiques de plus de 4000 aéroports (messages METAR et TAF).

Les stations disponibles sont représentées par des disques jaunes et rouges sur la carte.

Passer la souris dessus pour voir le nom de la station.

Cliquer dessus pour voir les observations et prévisions météorologiques.

Pour changer de carte: cliquez sur les boutons verts avec une croix noire pour zoomer, sur le bouton vert avec un tiret pour effectuer un zoom arrière, ou sur les flèches vertes pour les cartes adjacentes.


METAR-TAF: